Torna al catalogo

COSMOS 976

AttivoNavigazioneLEO
NORAD 10581·PAYLOAD·🇷🇺 Russia

Lanciato Jan 10, 1978 da Plesetsk Cosmodrome

Loading…

Prossimi Passaggi (prossime 24 ore)

TLE

AggiornatoSource: Space-Track

Epoca: Sep 14, 2026, 10:55 UTC

1 10581U 78005A   26257.45525734  .00000010  00000-0  16683-3 0  9990
2 10581  74.0317 155.9862 0005857 296.1886 175.5241 12.51298359216199

Traccia COSMOS 976 in tempo reale con AllMySat

Download on the App Store